x

8461490 - New London, Ct (nlnc3) Weather Station

1:30 - Fri 21st Nov 2014 All times are EST. -5 hours from GMT.

  • Wind
    8mph, 21mph gusts
  • Sea Temp 48°f
  • Luft Temp 36°f
  • Sea Pressure 1022mb
  • 8461490 - New London, Ct
  • 8461490 - New London, Ct

More Historic Weather Station data

Upgrade to MSW Pro to gain access to the past 30 days of data for over 8000 Wavebouys and Weather Stations around the globe.

Join Pro

Comparision Forecast

View Surf forecast
   
Fr 11/21 1:30 8 21 mph 1022mb 48f 36f
1:24 9 20 mph 1022mb 49f 35f
1:18 8 17 mph 1022mb 49f 36f
1:12 14 25 mph 1021.8mb 50f 35f
1:06 8 20 mph 1021.8mb 49f 36f
1:00 11 22 mph 1021.7mb 48f 36f
12:54 6 18 mph 1021.7mb 49f 36f
12:48 11 18 mph 1021.6mb 50f 35f
12:42 7 21 mph 1021.5mb 50f 35f
12:36 9 18 mph 1021.4mb 50f 35f
12:30 13 20 mph 1021.3mb 50f 35f
12:24 9 22 mph 1021.3mb 50f 35f
12:18 10 17 mph 1021.3mb 49f 35f
12:12 9 18 mph 1021.3mb 49f 35f
12:06 11 16 mph 1021.2mb 51f 35f
12:00 8 25 mph 1021.2mb 50f 35f
11:54 7 17 mph 1021.2mb 50f 35f
11:48 9 20 mph 1021.2mb 50f 34f
11:42 13 18 mph 1021.2mb 50f 34f
11:36 8 16 mph 1021.3mb 50f 34f
11:30 7 14 mph 1021.4mb 50f 34f
11:24 8 22 mph 1021.4mb 51f 34f
11:18 11 18 mph 1021.4mb 51f 33f
11:12 10 22 mph 1021.6mb 51f 33f
11:06 6 16 mph 1021.6mb 51f 33f
11:00 10 20 mph 1021.7mb 51f 33f
10:54 8 14 mph 1021.7mb 51f 33f
10:48 10 16 mph 1021.6mb 53f 33f
10:42 10 17 mph 1021.6mb 52f 32f
10:36 8 15 mph 1021.6mb 52f 33f
10:30 7 16 mph 1021.6mb 52f 33f
10:24 7 18 mph 1021.6mb 52f 32f
10:18 11 18 mph 1021.6mb 52f 32f
10:12 6 9 mph 1021.5mb 53f 33f
10:06 8 13 mph 1021.5mb 53f 32f
10:00 8 16 mph 1021.4mb 53f 32f
9:54 7 13 mph 1021.3mb 53f 32f
9:48 5 13 mph 1021.2mb 53f 32f
9:42 7 13 mph 1021.1mb 53f 32f
9:36 8 17 mph 1021mb 53f 31f
9:30 7 15 mph 1020.9mb 53f 31f
9:24 10 20 mph 1020.8mb 53f 30f
9:18 9 17 mph 1020.9mb 53f 30f
9:12 13 20 mph 1020.8mb 53f 30f
9:06 15 20 mph 1020.7mb 53f 30f
9:00 10 15 mph 1020.8mb 53f 30f
8:54 7 13 mph 1020.9mb 53f 30f
8:48 3 9 mph 1020.9mb 53f 30f
8:42 7 14 mph 1020.7mb 53f 30f
8:36 7 14 mph 1020.6mb 53f 29f
8:30 9 18 mph 1020.5mb 53f 29f
8:24 6 17 mph 1020.5mb 53f 29f
8:18 8 15 mph 1020.4mb 53f 29f
8:12 8 13 mph 1020.3mb 53f 29f
8:06 9 14 mph 1020.3mb 53f 29f
8:00 8 14 mph 1020.2mb 53f 28f
7:54 6 10 mph 1020.1mb 53f 28f
7:48 9 14 mph 1019.9mb 53f 28f
7:42 5 10 mph 1019.8mb 53f 28f
7:36 6 14 mph 1019.6mb 53f 28f
7:30 7 13 mph 1019.4mb 53f 28f
7:24 5 15 mph 1019.2mb 53f 28f
7:18 9 13 mph 1019.1mb 53f 27f
7:12 7 11 mph 1019mb 53f 27f
7:06 6 9 mph 1019mb 53f 27f
7:00 7 10 mph 1018.9mb 53f 27f
6:54 6 11 mph 1018.7mb 53f 27f
6:48 5 9 mph 1018.6mb 53f 27f
6:42 6 9 mph 1018.5mb 53f 27f
6:36 6 10 mph 1018.5mb 53f 27f
6:30 5 7 mph 1018.4mb 53f 27f
6:24 6 9 mph 1018.3mb 53f 27f
6:18 5 8 mph 1018.1mb 53f 27f
6:12 5 10 mph 1018mb 53f 27f
6:06 6 8 mph 1017.9mb 53f 27f
6:00 6 9 mph 1017.8mb 53f 27f
5:54 6 10 mph 1017.6mb 53f 28f
5:48 6 9 mph 1017.5mb 53f 28f
5:42 7 10 mph 1017.4mb 53f 28f
5:36 6 8 mph 1017.2mb 53f 28f
5:30 6 10 mph 1017.1mb 53f 28f
5:24 6 10 mph 1016.9mb 53f 28f
5:18 6 13 mph 1016.9mb 53f 28f
5:12 5 8 mph 1016.8mb 53f 28f
5:06 5 8 mph 1016.7mb 53f 28f
5:00 5 7 mph 1016.7mb 53f 28f
4:54 5 8 mph 1016.6mb 53f 28f
4:48 5 10 mph 1016.4mb 53f 28f
4:42 3 9 mph 1016.3mb 53f 28f
4:36 3 8 mph 1016.3mb 54f 28f
4:30 3 6 mph 1016.2mb 54f 28f
4:24 3 8 mph 1016.2mb 53f 28f
4:18 3 6 mph 1016.1mb 53f 28f
4:12 2 6 mph 1016mb 53f 28f
4:06 3 7 mph 1015.9mb 53f 29f
4:00 3 6 mph 1015.8mb 53f 29f
3:54 2 5 mph 1015.7mb 53f 29f
3:48 2 6 mph 1015.7mb 53f 29f
3:42 3 6 mph 1015.6mb 53f 29f
3:36 5 8 mph 1015.5mb 53f 29f
3:30 3 8 mph 1015.4mb 52f 29f
3:24 3 7 mph 1015.3mb 52f 29f
3:18 5 9 mph 1015.2mb 52f 30f
3:12 6 8 mph 1015.1mb 51f 30f
3:06 5 9 mph 1015.1mb 51f 30f
3:00 6 10 mph 1015mb 51f 30f
2:54 5 8 mph 1014.9mb 50f 30f
2:48 5 9 mph 1014.9mb 49f 30f
2:42 3 8 mph 1014.9mb 49f 30f
2:36 5 9 mph 1014.9mb 49f 30f
2:30 5 6 mph 1014.7mb 49f 30f
2:24 5 8 mph 1014.7mb 50f 30f
2:18 3 6 mph 1014.7mb 50f 30f
2:12 3 7 mph 1014.7mb 49f 30f
2:06 3 6 mph 1014.6mb 49f 30f
2:00 3 6 mph 1014.6mb 49f 30f
1:54 3 7 mph 1014.5mb 49f 30f
1:48 3 7 mph 1014.4mb 48f 30f
1:42 2 3 mph 1014.3mb 48f 30f
1:36 2 5 mph 1014.2mb 47f 30f
1:30 3 5 mph 1014.1mb 47f 30f
1:24 3 6 mph 1014.1mb 48f 30f
1:18 3 6 mph 1014.2mb 49f 31f
1:12 2 5 mph 1014.1mb 48f 31f
1:06 2 5 mph 1014mb 48f 31f
1:00 2 5 mph 1014mb 49f 31f
12:54 2 5 mph 1014mb 49f 31f
12:48 3 6 mph 1014mb 50f 31f
12:42 2 5 mph 1014mb 50f 31f
12:36 2 5 mph 1013.9mb 50f 32f
12:30 2 3 mph 1013.8mb 51f 32f
12:24 2 5 mph 1013.7mb 51f 32f
12:18 3 5 mph 1013.7mb 51f 32f
12:12 3 5 mph 1013.7mb 51f 32f
12:06 2 3 mph 1013.6mb 51f 32f
12:00 2 3 mph 1013.5mb 51f 33f
Do 11/20 11:54 3 5 mph 1013.5mb 51f 33f
11:48 3 5 mph 1013.5mb 51f 33f
11:42 3 5 mph 1013.5mb 52f 33f
11:36 3 6 mph 1013.3mb 51f 33f
11:30 2 5 mph 1013.2mb 51f 33f
11:24 3 5 mph 1013.2mb 51f 33f
11:18 2 5 mph 1013mb 51f 33f
11:12 5
mph
1012.9mb 50f 33f
11:06 2 5 mph 1012.8mb 51f 33f
11:00 5 7 mph 1012.9mb 51f 34f
10:54 3 8 mph 1012.9mb 50f 34f
10:48 6 10 mph 1012.9mb 50f 35f
10:42 5 8 mph 1012.9mb 50f 35f
10:36 5 9 mph 1012.9mb 51f 35f
10:30 5 8 mph 1012.8mb 51f 35f
10:24 3 8 mph 1012.7mb 51f 35f
10:18 5 8 mph 1012.7mb 51f 35f
10:12 5 7 mph 1012.6mb 52f 36f
10:06 6 9 mph 1012.7mb 51f 36f
10:00 7 10 mph 1012.7mb 51f 36f
9:54 6 10 mph 1012.5mb 51f 36f
9:48 6 13 mph 1012.5mb 52f 36f
9:42 5 15 mph 1012.4mb 51f 37f
9:36 5 9 mph 1012.4mb 51f 37f
9:30 7 13 mph 1012.3mb 51f 37f
9:24 9 14 mph 1012.3mb 52f 37f
9:18 6 10 mph 1012.2mb 51f 37f
9:12 7 9 mph 1012.1mb 52f 38f
9:06 5 8 mph 1012mb 52f 38f
9:00 5 9 mph 1012.1mb 52f 38f
8:54 8 14 mph 1011.9mb 52f 38f
8:48 6 10 mph 1011.9mb 52f 38f
8:42 6 11 mph 1011.8mb 53f 39f
8:36 6 9 mph 1011.7mb 53f 39f
8:30 8 14 mph 1011.6mb 52f 40f
8:24 8 11 mph 1011.6mb 51f 40f
8:18 9 13 mph 1011.6mb 52f 40f
8:12 8 13 mph 1011.6mb 53f 40f
8:06 7 10 mph 1011.5mb 52f 40f
8:00 3 10 mph 1011.5mb 51f 40f
7:54 3 9 mph 1011.5mb 51f 40f
7:48 6 10 mph 1011.4mb 52f 40f
7:42 6 11 mph 1011.4mb 52f 40f
7:36 7 13 mph 1011.3mb 52f 41f
7:30 7 13 mph 1011.2mb 52f 41f
7:24 6 14 mph 1011.2mb 52f 41f
7:18 5 9 mph 1011.1mb 52f 41f
7:12 5 11 mph 1011.2mb 52f 41f
7:06 9 16 mph 1011.1mb 53f 42f
7:00 8 14 mph 1011mb 52f 41f
6:42 8 13 mph 1011mb 52f 42f
6:36 6 14 mph 1010.9mb 52f 42f
6:30 7 15 mph 1010.8mb 52f 42f
6:24 6 11 mph 1010.7mb 52f 42f
6:18 6 13 mph 1010.6mb 52f 42f
6:12 6 14 mph 1010.5mb 51f 42f
6:06 8 14 mph 1010.4mb 51f 42f
6:00 8 14 mph 1010.3mb 51f 43f
5:54 8 15 mph 1010.1mb 51f 43f
5:48 6 14 mph 1010mb 51f 42f
5:42 10 16 mph 1009.8mb 52f 43f
5:36 7 17 mph 1009.7mb 51f 43f
5:30 7 20 mph 1009.7mb 51f 43f
5:24 8 16 mph 1009.6mb 51f 43f
5:18 11 21 mph 1009.4mb 51f 43f
5:12 10 18 mph 1009.4mb 51f 43f
5:06 11 23 mph 1009.3mb 52f 43f
5:00 6 10 mph 1009.3mb 51f 43f
4:54 6 18 mph 1009.1mb 51f 43f
4:48 10 15 mph 1009mb 51f 43f
4:42 6 10 mph 1008.9mb 51f 43f
4:36 6 15 mph 1008.9mb 50f 43f
4:30 8 14 mph 1008.9mb 50f 43f
4:24 9 15 mph 1008.9mb 49f 43f
4:18 13 17 mph 1008.9mb 49f 43f
4:12 10 17 mph 1008.9mb 51f 43f
4:06 9 14 mph 1008.8mb 51f 44f
4:00 6 17 mph 1008.8mb 49f 44f
3:54 7 18 mph 1008.8mb 48f 44f
3:48 13 21 mph 1008.8mb 48f 44f
3:42 10 17 mph 1008.7mb 48f 44f
3:36 7 16 mph 1008.6mb 48f 44f
3:30 9 20 mph 1008.5mb 49f 44f
3:24 8 16 mph 1008.5mb 49f 45f
3:18 6 14 mph 1008.5mb 48f 45f
3:12 13 21 mph 1008.5mb 48f 45f
3:06 13 20 mph 1008.4mb 48f 45f
3:00 10 21 mph 1008.4mb 48f 45f
2:54 10 21 mph 1008.5mb 48f 45f
2:48 9 21 mph 1008.5mb 48f 46f
2:42 10 24 mph 1008.5mb 48f 46f
2:36 11 24 mph 1008.6mb 48f 46f
2:30 13 23 mph 1008.6mb 49f 46f
2:24 11 23 mph 1008.6mb 48f 46f
2:18 17 25 mph 1008.5mb 49f 46f
2:12 11 21 mph 1008.6mb 49f 46f
2:06 13 22 mph 1008.8mb 49f 47f
2:00 11 24 mph 1008.8mb 48f 47f
1:54 14 24 mph 1008.8mb 48f 47f
1:48 14 20 mph 1008.9mb 48f 47f
1:42 9 21 mph 1008.9mb 48f 47f
1:36 14 20 mph 1008.9mb 48f 47f
1:30 14 22 mph 1008.9mb 48f 47f
1:24 10 25 mph 1009mb 49f 47f
1:18 14 28 mph 1009.1mb 49f 47f
1:12 11 23 mph 1009.1mb 47f 47f
1:06 9 23 mph 1009.2mb 48f 48f
1:00 10 22 mph 1009.2mb 49f 48f
12:54 15 32 mph 1009.2mb 49f 48f
12:48 16 30 mph 1009.3mb 48f 47f
12:42 9 21 mph 1009.3mb 49f 47f
12:36 11 23 mph 1009.5mb 49f 47f
12:30 15 23 mph 1009.7mb 49f 47f
12:24 18 24 mph 1009.9mb 49f 47f
12:18 14 22 mph 1009.9mb 49f 47f
12:12 14 20 mph 1009.9mb 49f 47f
12:06 15 23 mph 1010mb 48f 47f
12:00 14 21 mph 1010.1mb 49f 46f
11:54 7 18 mph 1010.3mb 49f 47f
11:48 14 24 mph 1010.4mb 49f 46f
11:42 15 20 mph 1010.5mb 50f 46f
11:36 10 23 mph 1010.5mb 51f 46f
11:30 11 16 mph 1010.6mb 51f 46f
11:24 9 18 mph 1010.7mb 51f 46f
11:18 7 14 mph 1010.8mb 51f 47f
11:06 11 17 mph 1011mb 51f 46f
11:00 10 16 mph 1011.1mb 51f 46f
10:54 13 17 mph 1011.1mb 51f 46f
10:42 8 15 mph 1011.3mb 49f 46f
10:36 10 14 mph 1011.5mb 49f 45f
10:30 9 14 mph 1011.7mb 49f 46f
10:24 9 15 mph 1011.7mb 50f 45f
10:18 9 13 mph 1011.8mb 50f 45f
10:12 10 14 mph 1011.8mb 50f 45f
10:06 11 17 mph 1011.9mb 50f 44f
10:00 8 20 mph 1012mb 50f 44f
9:54 11 17 mph 1012.1mb 50f 44f
9:48 11 16 mph 1012.2mb 51f 44f
9:42 10 17 mph 1012.2mb 50f 44f
9:36 13 16 mph 1012.3mb 49f 44f
9:30 10 18 mph 1012.3mb 50f 44f
9:24 9 16 mph 1012.3mb 51f 44f
9:18 11 18 mph 1012.2mb 51f 44f
9:12 9 16 mph 1012.3mb 51f 43f
9:06 8 11 mph 1012.4mb 52f 43f
9:00 10 14 mph 1012.5mb 53f 43f
8:54 11 15 mph 1012.4mb 52f 43f
8:48 6 8 mph 1012.4mb 52f 42f
8:42 5 11 mph 1012.4mb 51f 41f
8:36 3 8 mph 1012.4mb 51f 41f
8:30 3 10 mph 1012.5mb 51f 41f
8:24 3 5 mph 1012.6mb 51f 40f
8:18 5 7 mph 1012.6mb 51f 40f
8:12 3 6 mph 1012.7mb 52f 39f
8:06 3 6 mph 1012.7mb 51f 39f
8:00 3 6 mph 1012.8mb 51f 39f
7:54 2 6 mph 1012.9mb 51f 39f
7:48 3 6 mph 1013mb 51f 38f
7:42 2 6 mph 1013mb 52f 38f
7:36 3 5 mph 1013mb 51f 38f
7:30 2 6 mph 1012.9mb 51f 38f
7:24 3 5 mph 1012.9mb 49f 38f
7:18 3 6 mph 1013.2mb 50f 38f
7:06 2 5 mph 1013.2mb 50f 37f
7:00 2 5 mph 1013.2mb 49f 37f
6:54 2 5 mph 1013.1mb 50f 38f
6:48 2 6 mph 1013.2mb 50f 38f
6:42 2 8 mph 1013.2mb 49f 38f
6:36 2 6 mph 1013.3mb 49f 38f
6:30 6 8 mph 1013.4mb 50f 38f
6:24 5 10 mph 1013.3mb 51f 38f
6:18 6 8 mph 1013.3mb 50f 38f
6:12 6 11 mph 1013.2mb 50f 39f
6:06 6 11 mph 1013.3mb 50f 39f
6:00 7 13 mph 1013.4mb 52f 39f
5:54 8 13 mph 1013.3mb 50f 39f
5:48 7 13 mph 1013.4mb 50f 39f
5:42 9 14 mph 1013.5mb 51f 39f
5:36 7 14 mph 1013.6mb 52f 39f
5:30 9 15 mph 1013.5mb 51f 40f
5:24 9 13 mph 1013.6mb 51f 40f
5:18 7 11 mph 1013.6mb 52f 40f
5:12 9 14 mph 1013.7mb 52f 40f
5:06 10 15 mph 1013.7mb 52f 40f
5:00 7 11 mph 1013.7mb 52f 40f
4:54 8 14 mph 1013.7mb 51f 40f
4:48 8 14 mph 1013.8mb 51f 40f
4:42 10 14 mph 1014mb 51f 41f
4:36 7 15 mph 1014mb 50f 41f
4:30 11 23 mph 1014mb 51f 41f
4:24 13 20 mph 1014mb 50f 41f
4:18 11 18 mph 1014.1mb 51f 41f
4:12 14 22 mph 1014.1mb 51f 41f
4:06 13 22 mph 1014.2mb 51f 41f
4:00 14 20 mph 1014.3mb 51f 41f
3:54 14 21 mph 1014.3mb 51f 41f
3:48 14 20 mph 1014.4mb 50f 41f
3:42 10 18 mph 1014.6mb 50f 41f
3:36 11 18 mph 1014.7mb 51f 41f
3:30 10 21 mph 1014.8mb 51f 40f
3:24 8 20 mph 1015mb 51f 40f
3:18 11 22 mph 1015.1mb 51f 40f
3:12 13 20 mph 1015.1mb 51f 40f
3:06 13 17 mph 1015.2mb 51f 40f
3:00 10 20 mph 1015.3mb 50f 40f
2:54 10 21 mph 1015.5mb 49f 40f
2:48 9 22 mph 1015.5mb 48f 40f
2:42 9 21 mph 1015.7mb 49f 40f
2:36 13 21 mph 1015.7mb 49f 39f
2:30 10 15 mph 1015.9mb 49f 39f
2:24 6 15 mph 1016.1mb 49f 38f
2:18 10 18 mph 1016.2mb 49f 38f
2:12 8 13 mph 1016.3mb 49f 38f
2:06 10 15 mph 1016.4mb 48f 38f
2:00 6 15 mph 1016.4mb 48f 38f
1:54 2 11 mph 1016.3mb 49f 38f
1:48 7 9 mph 1016.4mb 50f 37f
1:42 5 9 mph 1016.5mb 51f 37f
1:36 7 10 mph 1016.6mb 51f 37f
1:30 8 13 mph 1016.6mb 51f 37f
1:24 8 15 mph 1016.8mb 51f 37f
1:18 6 14 mph 1016.9mb 51f 37f
1:12 8 14 mph 1016.9mb 52f 37f
1:06 8 13 mph 1017mb 51f 37f
1:00 6 14 mph 1017.1mb 51f 37f
12:54 8 14 mph 1017.2mb 50f 37f
12:48 9 14 mph 1017.3mb 50f 37f
12:42 7 17 mph 1017.3mb 49f 37f
12:36 9 18 mph 1017.5mb 49f 36f
12:30 8 13 mph 1017.6mb 51f 36f
12:24 6 9 mph 1017.8mb 51f 35f
12:18 5 9 mph 1017.9mb 50f 35f
12:12 6 13 mph 1018mb 51f 35f
12:06 7 11 mph 1018.2mb 51f 35f
12:00 5 10 mph 1018.2mb 51f 35f
Mi 11/19 11:54 7 17 mph 1018.3mb 51f 35f
11:48 7 15 mph 1018.4mb 51f 35f
11:42 9 16 mph 1018.4mb 51f 35f
11:36 3 13 mph 1018.6mb 51f 34f
11:30 7 13 mph 1018.6mb 51f 34f
11:24 6 14 mph 1018.7mb 50f 34f
11:18 6 14 mph 1018.8mb 51f 35f
11:12 7 14 mph 1018.8mb 51f 35f
11:06 8 14 mph 1018.9mb 51f 35f
11:00 7 11 mph 1019mb 51f 35f
10:54 11 20 mph 1019.1mb 51f 35f
10:48 9 16 mph 1019.2mb 52f 35f
10:42 7 16 mph 1019.2mb 52f 35f
10:36 10 18 mph 1019.2mb 52f 35f
10:30 7 14 mph 1019.3mb 52f 35f
10:24 9 21 mph 1019.2mb 52f 35f
10:18 8 16 mph 1019.2mb 52f 35f
10:12 8 20 mph 1019.2mb 51f 35f
10:06 9 16 mph 1019.1mb 51f 35f
10:00 13 22 mph 1019.1mb 51f 36f
9:54 10 18 mph 1018.9mb 52f 36f
9:48 11 14 mph 1018.9mb 53f 36f
9:42 10 23 mph 1018.7mb 53f 36f
9:36 10 20 mph 1018.7mb 52f 36f
9:30 13 18 mph 1018.7mb 52f 36f
9:24 7 18 mph 1018.7mb 51f 36f
9:18 13 22 mph 1018.6mb 51f 36f
9:12 11 17 mph 1018.6mb 51f 36f
9:06 14 20 mph 1018.6mb 52f 36f
9:00 9 17 mph 1018.7mb 52f 36f
8:54 13 18 mph 1018.6mb 52f 35f
8:48 13 21 mph 1018.8mb 51f 35f
8:42 7 18 mph 1018.8mb 51f 35f
8:36 13 16 mph 1019mb 51f 35f
8:30 9 14 mph 1019mb 52f 35f
8:24 10 16 mph 1019.1mb 52f 35f
8:18 11 21 mph 1019mb 52f 35f
8:12 9 14 mph 1019mb 53f 34f
8:06 8 15 mph 1019mb 53f 34f
8:00 8 14 mph 1019mb 53f 34f
7:54 11 17 mph 1019.1mb 53f 34f
7:48 8 15 mph 1019.2mb 53f 34f
7:42 7 13 mph 1019.2mb 53f 34f
7:36 8 15 mph 1019.3mb 53f 34f
7:30 7 13 mph 1019.4mb 53f 33f
7:24 9 13 mph 1019.6mb 53f 33f
7:18 7 16 mph 1019.5mb 53f 33f
7:12 11 20 mph 1019.5mb 52f 33f
7:06 8 16 mph 1019.5mb 53f 33f
7:00 9 14 mph 1019.6mb 52f 33f
6:42 10 16 mph 1019.8mb 53f 33f
6:36 7 11 mph 1019.9mb 54f 33f
6:30 10 20 mph 1019.9mb 54f 33f
6:24 9 13 mph 1020mb 54f 33f
6:18 8 16 mph 1020mb 53f 33f
6:12 9 15 mph 1020.1mb 53f 33f
6:06 9 15 mph 1020.2mb 53f 33f
6:00 11 14 mph 1020.3mb 53f 33f
5:54 7 13 mph 1020.5mb 53f 33f
5:48 8 14 mph 1020.6mb 53f 33f
5:42 9 18 mph 1020.5mb 53f 33f
5:36 8 15 mph 1020.5mb 54f 33f
5:30 9 13 mph 1020.5mb 53f 33f
5:24 3 8 mph 1020.4mb 53f 32f
5:18 3 7 mph 1020.5mb 53f 31f
5:12 2 3 mph 1020.5mb 54f 31f
5:06 1 6 mph 1020.4mb 54f 31f
5:00 3 5 mph 1020.4mb 53f 32f
4:54 2 7 mph 1020.4mb 52f 32f
4:48 5 6 mph 1020.4mb 52f 32f
4:42 3 7 mph 1020.5mb 52f 32f
4:36 5 8 mph 1020.4mb 52f 32f
4:30 5 9 mph 1020.4mb 52f 32f
4:24 8 11 mph 1020.4mb 53f 32f
4:18 5 11 mph 1020.5mb 53f 33f
4:06 9 14 mph 1020.5mb 52f 33f
3:54 6 11 mph 1020.4mb 53f 33f
3:48 7 11 mph 1020.4mb 52f 33f
3:42 8 14 mph 1020.4mb 53f 33f
3:36 7 15 mph 1020.4mb 53f 33f
3:30 7 14 mph 1020.4mb 53f 33f
3:24 8 13 mph 1020.4mb 53f 33f
3:18 7 11 mph 1020.3mb 54f 33f
3:06 7 10 mph 1020.3mb 53f 33f
3:00 7 14 mph 1020.3mb 53f 33f
2:54 7 11 mph 1020.4mb 53f 35f
2:48 8 13 mph 1020.4mb 53f 35f
2:42 7 16 mph 1020.3mb 54f 35f
2:36 9 14 mph 1020.4mb 53f 35f
2:30 9 14 mph 1020.4mb 53f 35f
2:24 9 15 mph 1020.4mb 53f 35f
2:18 9 14 mph 1020.5mb 52f 35f
2:06 8 14 mph 1020.5mb 50f 35f
2:00 10 15 mph 1020.5mb 48f 35f
1:54 9 14 mph 1020.5mb 49f 35f
1:48 9 13 mph 1020.5mb 49f 35f
1:42 9 14 mph 1020.7mb 49f 35f
1:36 7 13 mph 1020.7mb 51f 35f
1:30 7 11 mph 1020.7mb 51f 35f
1:24 5 9 mph 1020.6mb 51f 35f
1:18 6 11 mph 1020.6mb 51f 35f
1:12 3 8 mph 1020.6mb 51f 35f
1:06 5 9 mph 1020.6mb 51f 35f
1:00 2 6 mph 1020.6mb 51f 36f
12:54 2 7 mph 1020.6mb 52f 34f
12:48 5 8 mph 1020.7mb 52f 34f
12:42 7 8 mph 1020.6mb 52f 35f
12:36 3 9 mph 1020.6mb 52f 34f
12:30 3 8 mph 1020.8mb 51f 34f
12:24 3 7 mph 1021.1mb 51f 35f
12:18 5 9 mph 1021.1mb 52f 34f
12:06 6 8 mph 1021.3mb 51f 33f
12:00 2 8 mph 1021.4mb 51f 33f
11:54 6 9 mph 1021.4mb 53f 32f
11:42 6 9 mph 1021.4mb 53f 32f
11:36 7 10 mph 1021.5mb 53f 32f
11:30 5 8 mph 1021.6mb 53f 32f
11:24 5 9 mph 1021.6mb 53f 31f
11:12 8 11 mph 1021.8mb 53f 31f
11:06 6 10 mph 1021.9mb 53f 32f
10:54 6 8 mph 1022mb 53f 31f
10:48 3 9 mph 1022mb 52f 31f
10:42 2 8 mph 1022.3mb 52f 31f
10:36 6 10 mph 1022.3mb 52f 30f
10:30 2 7 mph 1022.3mb 52f 30f
10:24 6 9 mph 1022.3mb 54f 29f
10:18 5 8 mph 1022.3mb 53f 29f
10:06 5 10 mph 1022.4mb 53f 29f
10:00 6 9 mph 1022.5mb 53f 29f
9:54 7 10 mph 1022.3mb 53f 28f
9:48 5 9 mph 1022.3mb 53f 28f
9:42 7 10 mph 1022.3mb 53f 28f
9:36 6 10 mph 1022.3mb 53f 27f
9:30 6 11 mph 1022.2mb 54f 27f
9:24 6 10 mph 1022.3mb 54f 27f
9:18 5 10 mph 1022.2mb 54f 27f
9:12 6 9 mph 1022.2mb 55f 26f
9:06 7 10 mph 1022.1mb 54f 26f
9:00 8 13 mph 1022.1mb 55f 26f
8:54 7 11 mph 1022.2mb 54f 25f
8:48 6 9 mph 1022.2mb 55f 26f
8:42 5 9 mph 1022.3mb 55f 25f
8:36 5 11 mph 1022.2mb 55f 25f
8:30 6 9 mph 1022.1mb 55f 25f
8:24 6 10 mph 1022mb 55f 25f
8:18 8 14 mph 1021.8mb 55f 24f
8:12 7 11 mph 1021.8mb 55f 24f
8:06 6 11 mph 1022mb 55f 24f
8:00 5 8 mph 1022mb 55f 24f
7:54 5 8 mph 1022mb 54f 24f
7:48 2 10 mph 1021.9mb 54f 24f
7:42 6 8 mph 1021.8mb 54f 23f
7:36 5 9 mph 1021.7mb 54f 23f
7:30 7 9 mph 1021.7mb 54f 23f
7:24 6 8 mph 1021.6mb 54f 23f
7:18 3 6 mph 1021.4mb 54f 23f
7:06 3 8 mph 1021.1mb 55f 22f
7:00 2 5 mph 1020.9mb 55f 22f
6:54 5 9 mph 1020.8mb 54f 22f
6:48 2 6 mph 1020.6mb 54f 22f
6:42 5 8 mph 1020.4mb 54f 22f
6:36 3 6 mph 1020.3mb 54f 22f
6:30 5 9 mph 1020.3mb 54f 22f
6:24 3 5 mph 1020.1mb 54f 22f
6:18  -  2 mph 1020mb 54f 22f
6:12 2 8 mph 1020mb 54f 22f
6:06 2 8 mph 1019.7mb 53f 22f
6:00 6 9 mph 1019.5mb 53f 22f
5:54 7 11 mph 1019.3mb 54f 22f
5:48 5 8 mph 1019.3mb 53f 22f
5:42 6 13 mph 1019.3mb 53f 22f
5:36 7 13 mph 1019.2mb 53f 22f
5:30 6 11 mph 1019.1mb 53f 22f
5:24 7 10 mph 1019mb 53f 22f
5:18 5 13 mph 1018.9mb 53f 22f
5:12 6 9 mph 1018.9mb 53f 22f
5:06 6 11 mph 1018.9mb 53f 22f
5:00 5 13 mph 1018.7mb 53f 22f
4:54 5 9 mph 1018.8mb 51f 22f
4:48 3 7 mph 1018.8mb 51f 22f
4:42 6 13 mph 1018.5mb 52f 22f
4:36 6 13 mph 1018.6mb 52f 22f
4:30 6 13 mph 1018.5mb 52f 22f
4:24 6 10 mph 1018.5mb 51f 22f
4:18 5 18 mph 1018.4mb 51f 22f
4:12 6 10 mph 1018.3mb 52f 22f
4:06 7 14 mph 1018.3mb 52f 23f
4:00 7 11 mph 1018.3mb 51f 22f
3:54 3 8 mph 1018.2mb 48f 22f
3:48 8 16 mph 1018.2mb 49f 23f
3:42 5 13 mph 1018.1mb 51f 23f
3:36 8 15 mph 1018mb 50f 23f
3:30 6 15 mph 1018mb 48f 23f
3:24 8 16 mph 1017.9mb 49f 23f
3:18 6 13 mph 1017.9mb 51f 23f
3:12 8 17 mph 1017.8mb 54f 23f
3:06 9 16 mph 1017.6mb 53f 23f
3:00 7 15 mph 1017.5mb 53f 23f
2:54 9 16 mph 1017.4mb 54f 23f
2:48 9 15 mph 1017.5mb 54f 23f
2:42 10 20 mph 1017.5mb 54f 23f
2:36 10 20 mph 1017.4mb 52f 23f
2:30 9 16 mph 1017.3mb 50f 23f
2:24 10 16 mph 1017.2mb 49f 23f
2:18 7 16 mph 1017.1mb 49f 23f
2:12 7 11 mph 1017.1mb 50f 23f
2:06 9 18 mph 1017mb 50f 23f
2:00 9 15 mph 1017.1mb 51f 23f
1:54 13 17 mph 1016.9mb 51f 23f
1:48 8 18 mph 1016.8mb 51f 23f
1:42 8 18 mph 1016.7mb 50f 24f
1:36 6 17 mph 1016.7mb 51f 24f
1:30 8 20 mph 1016.6mb 50f 24f
1:24 8 20 mph 1016.6mb 50f 24f
1:18 9 17 mph 1016.5mb 48f 24f
1:12 10 16 mph 1016.4mb 49f 24f
1:06 10 17 mph 1016.4mb 50f 24f
1:00 7 13 mph 1016.3mb 48f 24f
12:54 7 16 mph 1016.3mb 48f 24f
12:48 7 22 mph 1016.2mb 48f 24f
12:42 7 11 mph 1016.3mb 48f 24f
12:36 7 14 mph 1016.3mb 48f 24f
12:30 8 15 mph 1016.4mb 49f 24f
12:24 10 18 mph 1016.1mb 50f 24f
12:18 6 15 mph 1016.1mb 50f 24f
12:12 6 14 mph 1016.2mb 50f 24f
12:06 10 15 mph 1016.2mb 51f 25f
12:00 7 18 mph 1016.3mb 52f 25f
Di 11/18 11:54 8 20 mph 1016.2mb 52f 25f
11:48 7 15 mph 1016.1mb 52f 25f
11:42 9 22 mph 1016mb 51f 25f
11:36 9 16 mph 1016mb 51f 25f
11:30 5 15 mph 1015.9mb 52f 25f
11:24 11 24 mph 1015.9mb 52f 25f
11:18 8 16 mph 1015.7mb 53f 26f
11:12 8 15 mph 1015.7mb 53f 26f
11:06 7 15 mph 1015.5mb 54f 26f
11:00 11 21 mph 1015.5mb 54f 26f
10:54 8 14 mph 1015.5mb 54f 26f
10:48 13 21 mph 1015.4mb 54f 26f
10:42 10 17 mph 1015.3mb 54f 26f
10:36 8 13 mph 1015.3mb 53f 26f
10:30 7 14 mph 1015.1mb 53f 26f
10:24 10 18 mph 1015mb 53f 27f
10:18 7 13 mph 1015.1mb 53f 27f
10:12 5 11 mph 1015mb 54f 27f
10:06 8 11 mph 1014.9mb 54f 27f
10:00 6 14 mph 1014.8mb 54f 27f
9:54 8 14 mph 1014.8mb 54f 27f
9:48 10 17 mph 1014.8mb 54f 27f
9:42 8 15 mph 1014.8mb 54f 27f
9:36 7 13 mph 1014.7mb 54f 27f
9:30 10 14 mph 1014.6mb 54f 27f
9:24 7 11 mph 1014.6mb 54f 28f
9:18 7 15 mph 1014.5mb 54f 28f
9:12 6 14 mph 1014.5mb 53f 28f
9:06 5 9 mph 1014.4mb 52f 28f
9:00 7 14 mph 1014.3mb 52f 28f
8:54 6 10 mph 1014.2mb 52f 28f
8:48 6 15 mph 1014.1mb 52f 28f
8:42 7 13 mph 1014mb 52f 28f
8:36 5 11 mph 1013.9mb 53f 28f
8:30 7 9 mph 1013.9mb 53f 28f
8:24 6 13 mph 1013.8mb 53f 28f
8:18 3 14 mph 1013.8mb 53f 28f
8:12 5 11 mph 1013.7mb 54f 28f
8:06 7 13 mph 1013.6mb 54f 29f
8:00 6 10 mph 1013.5mb 55f 29f
7:54 6 13 mph 1013.3mb 55f 29f
7:48 6 9 mph 1013.2mb 54f 29f
7:42 5 10 mph 1013.2mb 54f 29f
7:36 7 11 mph 1013.1mb 54f 29f
7:30 6 20 mph 1013.1mb 54f 29f
7:24 8 17 mph 1013mb 55f 29f
7:18 8 13 mph 1012.9mb 54f 29f
7:12 5 7 mph 1012.8mb 54f 29f
7:06 6 9 mph 1012.7mb 55f 29f
7:00 3 13 mph 1012.7mb 55f 29f
6:54 6 10 mph 1012.6mb 55f 29f
6:48 7 11 mph 1012.5mb 55f 29f
6:42 6 11 mph 1012.3mb 54f 29f
6:36 5 10 mph 1012.2mb 54f 29f
6:30 6 10 mph 1012.1mb 54f 30f
6:24 7 10 mph 1012mb 54f 30f
6:18 5 8 mph 1011.9mb 54f 30f
6:12 6 9 mph 1011.8mb 55f 30f
6:06 5 6 mph 1011.6mb 55f 30f
6:00 6 10 mph 1011.5mb 54f 30f
5:54 8 15 mph 1011.3mb 54f 30f
5:48 9 17 mph 1011.2mb 54f 30f
5:42 9 14 mph 1011.1mb 54f 30f
5:36 6 11 mph 1011.1mb 54f 31f
5:30 8 14 mph 1010.9mb 54f 31f
5:24 9 14 mph 1010.9mb 54f 31f
5:18 7 16 mph 1010.7mb 54f 31f
5:12 8 14 mph 1010.5mb 54f 31f
5:06 8 15 mph 1010.4mb 54f 31f
5:00 8 17 mph 1010.3mb 54f 31f
4:54 8 16 mph 1010.2mb 54f 31f
4:48 6 11 mph 1010.1mb 54f 31f
4:42 7 18 mph 1010mb 54f 31f
4:36 11 16 mph 1009.9mb 53f 32f
4:30 7 16 mph 1009.8mb 53f 32f
4:24 7 18 mph 1009.6mb 53f 32f
4:18 7 18 mph 1009.6mb 53f 32f
4:12 7 17 mph 1009.5mb 53f 32f
4:06 8 15 mph 1009.4mb 53f 33f
4:00 7 22 mph 1009.2mb 53f 33f
3:54 10 15 mph 1009.1mb 53f 33f
3:48 9 16 mph 1009.1mb 53f 33f
3:42 8 16 mph 1009mb 54f 33f
3:36 7 14 mph 1008.9mb 53f 33f
3:30 6 16 mph 1008.9mb 53f 33f
3:24 10 17 mph 1008.7mb 54f 33f
3:18 10 21 mph 1008.6mb 55f 33f
3:12 9 18 mph 1008.4mb 55f 34f
3:06 6 21 mph 1008.2mb 55f 34f
3:00 9 18 mph 1008.1mb 54f 34f
2:54 10 18 mph 1008.1mb 54f 34f
2:48 11 18 mph 1007.9mb 54f 34f
2:42 8 15 mph 1007.8mb 52f 35f
2:36 9 18 mph 1007.7mb 53f 35f
2:30 9 22 mph 1007.6mb 53f 35f
2:24 10 21 mph 1007.5mb 53f 35f
2:18 13 22 mph 1007.4mb 53f 35f
2:12 10 22 mph 1007.3mb 53f 35f
2:06 11 17 mph 1007.3mb 53f 35f
2:00 8 20 mph 1007.2mb 52f 35f
1:54 9 21 mph 1007.1mb 52f 35f
1:48 9 18 mph 1007mb 53f 35f
1:42 16 23 mph 1007mb 54f 35f
1:36 7 13 mph 1007mb 54f 36f
1:30 8 14 mph 1007mb 54f 36f
1:24 7 23 mph 1007mb 52f 36f
1:18 11 21 mph 1007mb 52f 35f
1:12 13 23 mph 1006.8mb 52f 35f
1:06 13 18 mph 1006.6mb 52f 36f
1:00 9 20 mph 1006.6mb 52f 37f
12:48 13 21 mph 1006.6mb 52f 36f
12:42 10 24 mph 1006.5mb 52f 36f
12:36 11 17 mph 1006.5mb 53f 36f
12:30 16 24 mph 1006.5mb 53f 36f
12:24 9 15 mph 1006.4mb 54f 37f
12:18 9 18 mph 1006.4mb 54f 37f
12:12 10 21 mph 1006.4mb 53f 36f
12:06 8 17 mph 1006.4mb 53f 37f
12:00 10 22 mph 1006.3mb 53f 37f
11:54 10 18 mph 1006.3mb 53f 37f
11:48 10 17 mph 1006.2mb 52f 37f
11:42 11 17 mph 1006.2mb 52f 37f
11:36 7 21 mph 1006.2mb 52f 38f
11:30 10 16 mph 1006.2mb 52f 37f
11:24 11 22 mph 1006.2mb 52f 37f
11:18 14 20 mph 1006.2mb 53f 37f
11:12 13 22 mph 1006.1mb 53f 37f
11:06 8 17 mph 1006mb 53f 38f
11:00 11 17 mph 1006mb 52f 38f
10:54 9 15 mph 1005.9mb 53f 38f
10:48 10 16 mph 1005.9mb 53f 38f
10:42 9 16 mph 1005.9mb 53f 38f
10:36 9 14 mph 1005.8mb 53f 38f
10:30 7 16 mph 1005.9mb 53f 38f
10:24 11 21 mph 1005.8mb 54f 37f
10:18 14 22 mph 1005.8mb 54f 38f
10:12 10 15 mph 1005.8mb 54f 38f
10:06 10 17 mph 1005.7mb 54f 38f
10:00 11 18 mph 1005.6mb 53f 38f
9:54 7 18 mph 1005.6mb 54f 38f
9:48 7 16 mph 1005.6mb 53f 38f
9:42 9 17 mph 1005.5mb 54f 38f
9:36 8 20 mph 1005.6mb 54f 38f
9:30 9 23 mph 1005.5mb 53f 38f
9:24 9 20 mph 1005.5mb 55f 38f
9:18 7 20 mph 1005.4mb 54f 38f
9:12 9 20 mph 1005.4mb 55f 37f
9:06 10 17 mph 1005.3mb 55f 38f
9:00 10 14 mph 1005.2mb 55f 38f
8:54 10 20 mph 1005.2mb 55f 38f
8:48 10 18 mph 1005.1mb 55f 38f
8:42 10 14 mph 1005mb 55f 38f
8:36 13 20 mph 1004.9mb 54f 38f
8:30 13 22 mph 1004.8mb 54f 38f
8:24 10 14 mph 1004.6mb 55f 38f
8:18 10 18 mph 1004.7mb 55f 38f
8:12 8 16 mph 1004.6mb 55f 38f
8:06 7 14 mph 1004.6mb 55f 38f
8:00 10 20 mph 1004.5mb 55f 38f
7:54 9 17 mph 1004.5mb 55f 38f
7:48 9 17 mph 1004.4mb 55f 39f
7:42 7 15 mph 1004.2mb 55f 39f
7:36 8 16 mph 1004mb 55f 39f
7:30 7 16 mph 1003.9mb 55f 39f
7:24 6 13 mph 1003.7mb 55f 39f
7:18 8 11 mph 1003.5mb 55f 39f
7:12 6 11 mph 1003.2mb 55f 39f
7:06 7 10 mph 1003mb 55f 39f
7:00 7 13 mph 1002.9mb 55f 39f
6:54 7 10 mph 1002.7mb 54f 39f
6:48 6 15 mph 1002.5mb 55f 39f
6:42 7 14 mph 1002.3mb 55f 40f
6:36 8 14 mph 1002.1mb 55f 40f
6:30 5 10 mph 1002mb 55f 40f
6:24 8 13 mph 1001.9mb 55f 40f
6:18 7 11 mph 1001.8mb 55f 40f
6:12 7 11 mph 1001.7mb 55f 40f
6:06 7 14 mph 1001.8mb 55f 40f
6:00 6 14 mph 1001.7mb 55f 41f
5:54 6 11 mph 1001.7mb 55f 41f
5:48 3 11 mph 1001.6mb 55f 41f
5:42 8 13 mph 1001.6mb 55f 41f
5:36 5 11 mph 1001.6mb 54f 41f
5:30 7 11 mph 1001.5mb 55f 41f
5:24 7 15 mph 1001.5mb 54f 41f
5:18 5 13 mph 1001.5mb 55f 41f
5:12 8 14 mph 1001.4mb 55f 42f
5:06 8 14 mph 1001.2mb 55f 42f
5:00 5 10 mph 1001.2mb 55f 42f
4:54 9 14 mph 1001.1mb 55f 42f
4:48 6 9 mph 1001.2mb 55f 43f
4:42 6 15 mph 1001.1mb 55f 43f
4:36 5 11 mph 1001mb 55f 43f
4:30 9 13 mph 1000.8mb 55f 44f
4:24 8 13 mph 1000.7mb 55f 44f
4:18 5 11 mph 1000.6mb 55f 44f
4:12 6 13 mph 1000.4mb 55f 44f
4:06 7 10 mph 1000.2mb 54f 45f
4:00 5 8 mph 1000.2mb 55f 45f
3:54 5 8 mph 1000.1mb 55f 45f
3:48 3 6 mph 1000mb 55f 45f
3:42 5 8 mph 1000mb 55f 45f
3:36 2 6 mph 999.8mb 55f 45f
3:30 3 7 mph 999.8mb 54f 45f
3:24 5 8 mph 999.7mb 54f 45f
3:18 7 11 mph 999.8mb 54f 45f
3:12 6 13 mph 999.8mb 55f 45f
3:06 7 14 mph 999.9mb 55f 45f
3:00 6 11 mph 1000mb 55f 45f
2:54 8 14 mph 1000.1mb 54f 46f
2:48 7 11 mph 1000mb 54f 46f
2:42 6 11 mph 999.9mb 54f 46f
2:36 6 13 mph 999.5mb 54f 46f
2:30 7 10 mph 998.9mb 54f 46f
2:24 6 16 mph 999.4mb 54f 46f
2:18 8 11 mph 999.1mb 53f 46f
2:12 6 10 mph 998.7mb 55f 46f
2:06 5 10 mph 998.6mb 54f 46f
2:00 7 10 mph 998.7mb 53f 46f
1:54 3 9 mph 998.7mb 54f 46f
1:48 3 9 mph 998.3mb 54f 46f
1:42 6 9 mph 998.5mb 53f 47f
1:36 5 9 mph 998.7mb 54f 47f
1:30 3 11 mph 998.8mb 55f 47f
1:24 6 13 mph 998.7mb 55f 47f
1:18 6 10 mph 998.9mb 55f 47f
1:12 6 11 mph 998.8mb 55f 47f
1:06 6 10 mph 998.8mb 54f 47f
1:00 5 13 mph 998.9mb 54f 47f
12:54 3 10 mph 998.5mb 54f 47f
12:48 6 10 mph 998.4mb 54f 47f
12:42 5 9 mph 998.3mb 54f 47f
12:36 6 9 mph 998mb 53f 47f
12:30 7 13 mph 997.7mb 53f 47f
12:24 7 11 mph 997.8mb 53f 48f
12:18 9 14 mph 998mb 53f 48f
12:12 9 15 mph 997.8mb 53f 48f
12:06 8 15 mph 997.9mb 53f 48f
12:00 10 20 mph 997.9mb 53f 49f
Mo 11/17 11:54 7 11 mph 998.1mb 54f 49f
11:48 9 16 mph 997.9mb 54f 49f
11:42 7 11 mph 997.7mb 54f 49f
11:36 7 14 mph 997.6mb 54f 49f
11:30 7 11 mph 998mb 54f 50f
11:24 10 15 mph 997.8mb 54f 50f
11:18 5 10 mph 997.8mb 54f 50f
11:12 6 11 mph 997.7mb 54f 50f
11:06 8 11 mph 997.4mb 54f 50f
11:00 6 9 mph 997.5mb 54f 51f
10:54 5 8 mph 997.5mb 54f 51f
10:48 6 8 mph 997.3mb 55f 51f
10:42 3 8 mph 997mb 54f 51f
10:36 6 9 mph 996.9mb 55f 51f
10:30 3 8 mph 997.1mb 54f 52f
10:24 5 7 mph 997mb 54f 52f
10:18 6 9 mph 997.2mb 54f 52f
10:12 6 10 mph 997mb 55f 52f
10:06 6 9 mph 996.7mb 54f 52f
10:00 5 10 mph 996.8mb 54f 52f
9:54 7 11 mph 997mb 55f 52f
9:48 6 9 mph 997.2mb 55f 53f
9:42 5 7 mph 997.3mb 54f 53f
9:36 5 7 mph 997.1mb 55f 53f
9:30 5 7 mph 996.8mb 55f 53f
9:24 3 6 mph 996.7mb 54f 53f
9:18 3 6 mph 996.6mb 54f 53f
9:12 2 8 mph 996.8mb 54f 53f
9:06 7 11 mph 997mb 54f 54f
9:00 6 10 mph 997.1mb 54f 54f
8:54 6 10 mph 996.8mb 53f 54f
8:48 7 14 mph 996.6mb 54f 55f
8:42 7 17 mph 996.7mb 54f 55f
8:36 9 15 mph 996.5mb 54f 55f
8:30 7 14 mph 996.5mb 54f 56f
8:24 6 17 mph 996.7mb 53f 56f
8:18 8 14 mph 996.8mb 54f 56f
8:12 11 22 mph 996.7mb 53f 57f
8:06 11 14 mph 996.6mb 53f 57f
8:00 9 16 mph 996.6mb 53f 58f
7:54 8 13 mph 996.8mb 53f 58f
7:48 10 14 mph 996.9mb 54f 58f
7:42 8 13 mph 996.9mb 53f 58f
7:36 8 14 mph 996.9mb 55f 58f
7:30 6 9 mph 997.1mb 55f 58f
7:24 3 6 mph 996.9mb 55f 57f